Location: Unspecified
(0.0000°N, 1.0000°E)
Time: 17:24:36
(UTC+01:00)

Envisat - Visible Passes

Search period start: 25 January 2022 00:00
Search period end: 04 February 2022 00:00
Orbit: 764 x 766 km, 98.2° (Epoch: 25 January)

Date Brightness Start Highest point End Pass type
(mag) Time Alt. Az. Time Alt. Az. Time Alt. Az.
25 Jan 5.5 04:32:48 10° ENE 04:36:19 19° ESE 04:39:49 10° SSE visible
25 Jan 3.9 06:10:57 10° NNW 06:15:02 25° WNW 06:19:10 10° SW visible
26 Jan 2.8 05:33:14 10° N 05:38:16 73° WNW 05:43:20 10° SSW visible
27 Jan 4.3 04:56:49 10° NE 05:01:30 39° ESE 05:06:12 10° S visible
27 Jan 4.7 06:38:27 10° WNW 06:40:14 12° WNW 06:42:01 10° W visible
28 Jan 5.8 04:22:18 10° ENE 04:24:46 14° ESE 04:27:13 10° SE visible
28 Jan 3.5 05:58:56 10° NNW 06:03:28 34° WNW 06:08:04 10° SW visible
29 Jan 3.0 05:21:38 10° NNE 05:26:43 82° ESE 05:31:48 10° S visible
30 Jan 4.8 04:45:39 10° NE 04:49:56 28° ESE 04:54:16 10° SSE visible
30 Jan 4.4 06:25:32 10° NW 06:28:41 17° WNW 06:31:50 10° WSW visible
31 Jan 3.1 05:47:04 10° N 05:51:55 47° WNW 05:56:47 10° SSW visible
01 Feb 3.5 05:10:10 10° NNE 05:15:08 59° ESE 05:20:08 10° S visible
02 Feb 5.3 04:34:40 10° NE 04:38:23 21° ESE 04:42:07 10° SSE visible
02 Feb 4.0 06:13:11 10° NNW 06:17:07 23° WNW 06:21:04 10° SW visible
03 Feb 2.9 05:35:20 10° N 05:40:21 66° WNW 05:45:24 10° SSW visible
